TimeBST,TemperatureF,Dew PointF,Humidity,Sea Level PressureIn,VisibilityMPH,Wind Direction,Wind SpeedMPH,Gust SpeedMPH,PrecipitationIn,Events,Conditions,WindDirDegrees,DateUTC
12:50 AM,55,49,73,30.06,19,North,2.3,,,,Scattered Clouds,0,2013-08-07 23:50:00
12:50 AM,55.4,48.2,77,30.04,6.2,North,2.3,-,N/A,,Partly Cloudy,360,2013-08-07 23:50:00
1:50 AM,53.6,50.0,88,30.06,6.2,NNW,1.2,-,N/A,,Partly Cloudy,340,2013-08-08 00:50:00
2:50 AM,51.8,48.2,88,30.06,6.2,SSW,2.3,-,N/A,,Unknown,210,2013-08-08 01:50:00
3:50 AM,51,48,87,30.06,14,NNW,2.3,,,,,340,2013-08-08 02:50:00
3:50 AM,51.8,48.2,88,30.04,6.2,NNW,2.3,-,N/A,,Unknown,340,2013-08-08 02:50:00
4:50 AM,51.8,48.2,88,30.06,6.2,NNW,2.3,-,N/A,,Unknown,340,2013-08-08 03:50:00
5:50 AM,50.0,46.4,87,30.09,6.2,NNW,2.3,-,N/A,,Unknown,340,2013-08-08 04:50:00
6:50 AM,51,48,86,30.11,12,Calm,Calm,,,,Scattered Clouds,,2013-08-08 05:50:00
6:50 AM,51.8,48.2,88,30.09,-9999.0,Calm,Calm,-,N/A,,Clear,0,2013-08-08 05:50:00
7:50 AM,57.2,50.0,77,30.09,-9999.0,NE,2.3,-,N/A,,Clear,40,2013-08-08 06:50:00
8:50 AM,62.6,51.8,68,30.12,-9999.0,NNW,1.2,-,N/A,,Clear,340,2013-08-08 07:50:00
9:50 AM,67,48,40,30.12,22,East,2.3,,,,Clear,100,2013-08-08 08:50:00
9:50 AM,68.0,48.2,49,30.12,-9999.0,East,2.3,-,N/A,,Clear,100,2013-08-08 08:50:00
10:50 AM,68.0,48.2,49,30.12,6.2,WSW,2.3,-,N/A,,Mostly Cloudy,240,2013-08-08 09:50:00
11:50 AM,71.6,48.2,43,30.12,6.2,West,3.5,-,N/A,,Mostly Cloudy,270,2013-08-08 10:50:00
12:50 PM,71,46,30,30.12,25,North,2.3,,,,Scattered Clouds,350,2013-08-08 11:50:00
12:50 PM,71.6,46.4,41,30.12,-9999.0,North,2.3,-,N/A,,Clear,350,2013-08-08 11:50:00
1:50 PM,71.6,46.4,41,30.09,6.2,NW,8.1,-,N/A,,Unknown,310,2013-08-08 12:50:00
2:50 PM,73.4,44.6,36,30.09,-9999.0,WSW,6.9,-,N/A,,Clear,250,2013-08-08 13:50:00
3:50 PM,74,47,28,30.11,22,WNW,3.5,,,,Partly Cloudy,290,2013-08-08 14:50:00
3:50 PM,73.4,48.2,41,30.09,6.2,WNW,3.5,-,N/A,,Scattered Clouds,290,2013-08-08 14:50:00
4:50 PM,75.2,46.4,36,30.09,-9999.0,SW,11.5,-,N/A,,Clear,220,2013-08-08 15:50:00
5:50 PM,75.2,50.0,41,30.09,-9999.0,WSW,9.2,-,N/A,,Clear,240,2013-08-08 16:50:00
6:50 PM,72,51,37,30.10,22,WSW,10.4,,,,Scattered Clouds,240,2013-08-08 17:50:00
6:50 PM,71.6,51.8,50,30.09,-9999.0,WSW,10.4,-,N/A,,Clear,240,2013-08-08 17:50:00
7:50 PM,69.8,51.8,53,30.09,-9999.0,SW,12.7,-,N/A,,Clear,220,2013-08-08 18:50:00
8:50 PM,68.0,51.8,56,30.09,-9999.0,SW,11.5,-,N/A,,Clear,220,2013-08-08 19:50:00
9:50 PM,65,50,49,30.12,19,SW,10.4,,,,Partly Cloudy,220,2013-08-08 20:50:00
9:50 PM,66.2,50.0,56,30.12,-9999.0,SW,10.4,-,N/A,,Clear,220,2013-08-08 20:50:00
10:50 PM,64.4,51.8,64,30.09,-9999.0,SW,9.2,-,N/A,,Clear,220,2013-08-08 21:50:00
11:50 PM,62.6,53.6,72,30.09,-9999.0,SW,8.1,-,N/A,,Clear,220,2013-08-08 22:50:00